Regional Weather Roundup
Issued by NWS

Home | Current Version | Previous Version | Text Only | Print | Product List | Glossary Off
Versions: 1 2 3 4 5 6 7 8 9 10 11 12 13 14 15 16 17 18 19 20 21 22 23 24 25 26 27 28 29 30 31 32 33 34 35 36 37 38 39 40 41 42 43 44 45 46 47 48 49 50

000
ASUS43 KFSD 310902
RWRSD

WEATHER ROUNDUP FOR SOUTH DAKOTA
NATIONAL WEATHER SERVICE SIOUX FALLS SD
400 AM CDT WED AUG 31 2016

NOTE: "FAIR" INDICATES FEW OR NO CLOUDS BELOW 12,000 FEET WITH NO
SIGNIFICANT WEATHER AND/OR OBSTRUCTIONS TO VISIBILITY.


SDZ001>005-009-010-012>017-311000-
NORTHWEST AND NORTH CENTRAL SOUTH DAKOTA

CITY           SKY/WX    TMP DP  RH WIND       PRES   REMARKS
BUFFALO          N/A     64  60  87 S9        30.07S
MOBRIDGE       CLEAR     69  60  73 SE13      30.14S
$$

SDZ012>016-024>037-041>051-057-063-072>074-311000-
SOUTHWEST AND SOUTH CENTRAL SOUTH DAKOTA

CITY           SKY/WX    TMP DP  RH WIND       PRES   REMARKS
RAPID CTY ARPT CLEAR     61  54  77 SE3       30.18S
PIERRE         CLEAR     65  64  97 SE6       30.15F
CUSTER         CLEAR     56  51  84 SW3       30.33F
ELLSWORTH AFB  CLEAR     65  56  71 S7        30.17S
PHILIP         CLEAR     66  61  84 S8        30.16S
PINE RIDGE     CLEAR     62  60  93 S6        30.23S
WINNER         FAIR      70  65  84 S9        30.20S
$$

SDZ004>011-016>023-039-040-311000-
NORTHEAST SOUTH DAKOTA

CITY           SKY/WX    TMP DP  RH WIND       PRES   REMARKS
ABERDEEN       MOCLDY    59  56  89 NE5       30.21R
WATERTOWN      PTCLDY    59  55  87 CALM      30.22F
SISSETON         N/A     56  52  86 SW5       30.21S
$$

SDZ017-020-022-023-036>040-048>070-311000-
SOUTHEAST SOUTH DAKOTA

CITY           SKY/WX    TMP DP  RH WIND       PRES   REMARKS
SIOUX FALLS    CLEAR     58  57  97 CALM      30.22S
HURON          MOCLDY    67  60  78 SE7       30.19F
CHAMBERLAIN    CLEAR     66  66 100 SE5       30.19S
MITCHELL       CLOUDY    65  63  93 CALM      30.20S
YANKTON        PTCLDY    63  61  94 NE5       30.19S
$$

ABBREVIATIONS USED IN REMARKS
   TC - TEMPERATURE IN CELSIUS
  WCI - WIND CHILL INDEX
   HX - HEAT INDEX
  VSB - VISIBILITY





USA.gov is the U.S. government's official web portal to all federal, state and local government web resources and services.